Brainerd, MN

2:43 PM CDT on October 22, 2017 (GMT -0500)
Brainerd-Crow Wing County Regional

Weather History for KBRD - January, 2013

Change the Weather History Date:

Monday, January 28, 2013

  Actual Average Record
Temperature  
Mean Temperature 30 °F -  
Max Temperature 33 °F 19 °F 41 °F (1982)
Min Temperature 28 °F -9 °F -36 °F (1966)
Degree Days  
Heating Degree Days 34    
Moisture  
Dew Point 27 °F    
Average Humidity 88    
Maximum Humidity 96    
Minimum Humidity 85    
Precipitation  
Precipitation 0.05 in - - ()
Sea Level Pressure  
Sea Level Pressure 29.80 in    
Wind  
Wind Speed 2 mph (SE)    
Max Wind Speed 10 mph    
Max Gust Speed -    
Visibility 2 miles    
Events Rain    
Averages and records for this station are not official NWS values.
T = Trace of Precipitation, MM = Missing Value Source: NWS Daily Summary

Daily Weather History Graph

Daily Weather History Graph

Search for Another Location

Airport or City:

Trip Planner

Search our weather history database for the weather conditions in past years. The results will help you decide how hot, cold, wet, or windy it might be!

Date:

Astronomy

Jan. 28, 2013 Rise Set
Actual Time 7:44 AM CST 5:15 PM CST
Civil Twilight 7:11 AM CST 5:47 PM CST
Nautical Twilight 6:35 AM CST 6:24 PM CST
Astronomical Twilight 5:59 AM CST 6:59 PM CST
Moon 7:21 PM CST (1/28) 8:01 AM CST (1/28)
Length of Visible Light 10h 36m
Length of Day
9h 31m
Full, 98% of the Moon is Illuminated
Jan 28
Full
Feb 3
Last Quarter
Feb 10
New
Feb 17
First Quarter
Feb 25
Full

Hourly Weather History & Observations

Time (CST) Temp. Windchill Dew Point Humidity Pressure Visibility Wind Dir Wind Speed Gust Speed Precip Events Conditions
12:37 AM 30.2 °F - 26.6 °F 86% 29.79 in 5.0 mi Calm Calm - 0.00 in   Overcast
12:53 AM 30.0 °F - 26.1 °F 85% 29.84 in 4.0 mi Calm Calm - 0.00 in   Overcast
1:53 AM 28.9 °F - 26.1 °F 89% 29.85 in 4.0 mi Calm Calm - 0.00 in   Overcast
2:06 AM 28.4 °F - 24.8 °F 86% 29.80 in 4.0 mi Calm Calm - N/A   Overcast
2:53 AM 28.9 °F - 25.0 °F 85% 29.84 in 3.0 mi Calm Calm - N/A   Overcast
3:48 AM 28.4 °F - 24.8 °F 86% 29.80 in 2.5 mi Calm Calm - N/A   Overcast
3:53 AM 28.0 °F - 24.1 °F 85% 29.86 in 2.5 mi Calm Calm - N/A   Overcast
4:07 AM 28.4 °F - 24.8 °F 86% 29.81 in 3.0 mi Calm Calm - N/A   Overcast
4:14 AM 28.4 °F - 24.8 °F 86% 29.80 in 2.5 mi Calm Calm - N/A   Overcast
4:31 AM 28.4 °F - 24.8 °F 86% 29.80 in 3.0 mi Calm Calm - N/A   Overcast
4:53 AM 28.9 °F - 25.0 °F 85% 29.85 in 3.0 mi Calm Calm - N/A   Overcast
5:53 AM 28.9 °F - 25.0 °F 85% 29.84 in 4.0 mi Calm Calm - N/A   Overcast
6:53 AM 28.9 °F - 25.0 °F 85% 29.86 in 3.0 mi Calm Calm - N/A   Overcast
7:31 AM 28.4 °F - 24.8 °F 86% 29.84 in 2.5 mi Calm Calm - N/A   Overcast
7:53 AM 28.9 °F - 26.1 °F 89% 29.88 in 2.0 mi Calm Calm - N/A   Overcast
8:05 AM 28.4 °F - 26.6 °F 93% 29.83 in 1.5 mi Calm Calm - N/A   Overcast
8:29 AM 28.4 °F 23.3 °F 24.8 °F 86% 29.82 in 1.0 mi SE 4.6 mph - N/A   Overcast
8:50 AM 28.4 °F 24.6 °F 26.6 °F 93% 29.82 in 1.2 mi SSE 3.5 mph - N/A   Overcast
8:53 AM 28.9 °F - 26.1 °F 89% 29.88 in 1.2 mi Calm Calm - N/A   Overcast
9:15 AM 30.2 °F 25.4 °F 26.6 °F 86% 29.83 in 1.5 mi South 4.6 mph - N/A   Overcast
9:53 AM 30.0 °F 24.1 °F 27.0 °F 88% 29.88 in 1.5 mi South 5.8 mph - N/A   Overcast
10:53 AM 30.9 °F 25.2 °F 28.0 °F 89% 29.88 in 2.0 mi South 5.8 mph - N/A   Overcast
11:45 AM 32.0 °F 25.6 °F 28.4 °F 87% 29.82 in 1.8 mi South 6.9 mph - N/A   Overcast
11:53 AM 32.0 °F 25.6 °F 28.9 °F 88% 29.86 in 1.8 mi South 6.9 mph - N/A   Overcast
12:19 PM 32.0 °F 24.2 °F 28.4 °F 87% 29.82 in 2.0 mi South 9.2 mph - N/A   Overcast
12:30 PM 32.0 °F 25.6 °F 28.4 °F 87% 29.81 in 1.8 mi South 6.9 mph - N/A   Overcast
12:53 PM 33.1 °F 24.9 °F 28.9 °F 85% 29.87 in 2.0 mi South 10.4 mph - N/A   Overcast
1:53 PM 33.1 °F 26.9 °F 30.0 °F 89% 29.84 in 2.0 mi South 6.9 mph - N/A   Overcast
2:24 PM 33.8 °F 27.7 °F 30.2 °F 87% 29.79 in 1.8 mi SSE 6.9 mph - N/A   Overcast
2:37 PM 33.8 °F 28.6 °F 30.2 °F 87% 29.78 in 2.0 mi SSE 5.8 mph - N/A   Overcast
2:53 PM 33.1 °F 27.7 °F 30.0 °F 89% 29.83 in 2.0 mi SSE 5.8 mph - N/A   Overcast
3:53 PM 33.1 °F 30.0 °F 30.9 °F 92% 29.85 in 1.8 mi SSE 3.5 mph - N/A   Overcast
4:06 PM 33.8 °F 30.8 °F 30.2 °F 87% 29.79 in 1.0 mi ESE 3.5 mph - N/A   Overcast
4:53 PM 33.1 °F 26.9 °F 30.0 °F 89% 29.82 in 1.2 mi SSE 6.9 mph - N/A   Overcast
5:28 PM 33.8 °F 28.6 °F 30.2 °F 87% 29.78 in 1.8 mi SSE 5.8 mph - N/A   Overcast
5:53 PM 33.1 °F 28.7 °F 32.0 °F 96% 29.83 in 2.0 mi South 4.6 mph - N/A   Overcast
6:53 PM 33.1 °F 27.7 °F 32.0 °F 96% 29.81 in 1.8 mi SE 5.8 mph - N/A   Overcast
7:53 PM 33.1 °F - 32.0 °F 96% 29.79 in 1.2 mi Calm Calm - 0.00 in   Overcast
8:13 PM 33.8 °F 29.6 °F - N/A% 29.74 in 0.8 mi ESE 4.6 mph - N/A   Overcast
8:53 PM 33.1 °F - - N/A% 29.78 in 0.8 mi Calm Calm - 0.00 in   Overcast
9:42 PM 32.0 °F 28.7 °F - N/A% 29.71 in 0.8 mi East 3.5 mph - 0.00 in Rain Light Freezing Rain
9:53 PM 32.0 °F 26.4 °F - N/A% 29.75 in 0.8 mi East 5.8 mph - 0.01 in Rain Light Freezing Rain
10:26 PM 32.0 °F 28.7 °F - N/A% 29.68 in 1.0 mi East 3.5 mph - 0.01 in   Overcast
10:53 PM 32.0 °F 25.6 °F - N/A% 29.70 in 0.8 mi NE 6.9 mph - 0.01 in   Overcast
11:17 PM 32.0 °F - - N/A% 29.68 in 1.0 mi Calm Calm - 0.00 in Rain Light Freezing Rain
11:44 PM 32.0 °F - - N/A% 29.67 in 1.8 mi Calm Calm - 0.02 in Rain Light Freezing Rain
11:53 PM 32.0 °F - - N/A% 29.70 in 1.8 mi Calm Calm - 0.03 in Rain Light Freezing Rain
11:59 PM 32.0 °F 28.7 °F - N/A% 29.65 in 2.0 mi NE 3.5 mph - 0.00 in Rain Light Freezing Rain